Date_and_time,latitude,longitude,wind_speed,RelWindDirFrom,WindDirFrom,air_pressure,air_temperature,relative_humidity,Temp,platform_speed_wrt_ground,air_pressure_at_mean_sea_level,platform_orientation
2018-05-03 23:40,50.6304433333333,-96.9807483333333,11.5,18.2,219,979.76,19.2,29,5.11,0.0,1006.03,12.6
2018-05-03 23:50,50.630445,-96.9807533333333,11.6,16.3,223,979.69,19.0,29,5.11,0.0,1005.98,12.6
2018-05-04 00:00,50.6304633333333,-96.98083,10.4,16.3,235,979.59,19.3,29,5.14,0.0,1005.67,303.0
2018-05-04 00:10,50.630435,-96.9807683333333,9.3,15.3,237,979.51,19.2,29,5.15,0.0,1005.40,303.0
2018-05-04 00:20,50.6304283333333,-96.9807583333333,10.2,15.5,233,979.47,19.3,29,5.15,0.0,1005.35,303.0
2018-05-04 00:30,50.6304283333333,-96.9807566666667,9.0,14.0,230,979.39,19.2,29,5.16,0.0,1005.25,303.0
2018-05-04 00:40,50.6304266666667,-96.9807566666667,9.0,15.8,232,979.36,19.0,29,5.15,0.0,1005.21,303.0
2018-05-04 00:50,50.6304283333333,-96.9807583333333,6.8,9.7,241,979.36,18.8,30,5.17,0.0,1005.19,303.0
2018-05-04 01:00,50.6304316666667,-96.980765,5.9,8.9,241,979.40,18.8,30,5.17,0.0,1005.20,194.5
2018-05-04 01:10,50.6304366666667,-96.9807733333333,6.2,8.8,249,979.40,19.0,30,5.17,0.0,1005.18,194.5
2018-05-04 01:20,50.6304183333333,-96.980775,5.8,8.4,257,979.46,18.9,30,5.15,0.0,1005.25,194.5
2018-05-04 01:30,50.630435,-96.9807666666667,5.0,10.5,287,979.45,18.7,31,5.14,0.0,1005.26,194.5
2018-05-04 01:40,50.63047,-96.9807466666667,5.9,8.9,310,979.53,17.9,34,5.13,0.0,1005.39,194.5
2018-05-04 01:50,50.6304116666667,-96.9807666666667,6.8,10.0,323,979.59,17.2,37,5.11,0.0,1005.47,194.5
2018-05-04 02:00,50.630425,-96.9807716666667,4.6,6.8,316,979.66,16.6,40,5.11,0.0,1005.57,240.8
2018-05-04 02:10,50.6304283333333,-96.980765,3.1,4.2,311,979.73,16.4,42,5.12,0.0,1005.65,240.8
2018-05-04 02:20,50.6304366666667,-96.9807716666667,2.7,4.3,300,979.81,16.3,42,5.12,0.0,1005.74,240.8
2018-05-04 02:30,50.6304366666667,-96.9807633333333,2.7,3.7,273,979.90,16.0,43,5.11,0.0,1005.86,240.8
2018-05-04 02:40,50.6304383333333,-96.9807566666667,3.1,4.7,277,980.01,15.8,44,5.12,0.0,1005.98,240.8
2018-05-04 02:50,50.6304366666667,-96.980755,3.5,4.8,262,980.13,15.5,45,5.13,0.0,1006.12,240.8
2018-05-04 03:00,50.6304383333333,-96.9807616666667,3.4,4.3,250,980.07,15.2,46,5.12,0.0,1006.07,116.7
2018-05-04 03:10,50.6304383333333,-96.9807616666667,3.4,4.9,249,980.03,15.0,46,5.11,0.0,1006.04,116.7
2018-05-04 03:20,50.6304383333333,-96.9807616666667,3.6,4.5,243,979.99,14.8,47,5.11,0.0,1006.01,116.7
2018-05-04 03:30,50.6304316666667,-96.9807733333333,4.1,5.3,251,980.05,14.6,48,5.11,0.0,1006.12,116.7
2018-05-04 03:40,50.6304283333333,-96.9807666666667,4.9,6.2,251,980.09,14.4,49,5.12,0.0,1006.20,116.7
2018-05-04 03:50,50.63043,-96.980765,5.0,6.2,252,980.13,14.0,50,5.11,0.0,1006.29,116.7
2018-05-04 04:00,50.6304266666667,-96.98077,4.8,6.1,254,980.10,13.7,50,5.10,0.0,1006.29,360.0
2018-05-04 04:10,50.6304316666667,-96.9807666666667,4.8,5.7,251,980.10,13.5,51,5.07,0.0,1006.30,360.0
2018-05-04 04:20,50.6304366666667,-96.9807666666667,4.9,6.1,250,980.10,13.2,52,5.08,0.0,1006.32,360.0
2018-05-04 04:30,50.6304366666667,-96.980765,5.1,6.0,251,980.08,13.0,52,5.12,0.0,1006.33,360.0
2018-05-04 04:40,50.6304366666667,-96.9807666666667,5.1,6.3,252,980.09,12.9,52,5.14,0.0,1006.36,360.0
2018-05-04 04:50,50.630435,-96.9807683333333,4.8,5.6,244,980.11,12.6,52,5.13,0.0,1006.40,360.0
2018-05-04 05:00,50.6304366666667,-96.9807683333333,5.2,6.1,243,980.10,12.3,53,5.11,0.0,1006.41,41.3
2018-05-04 05:10,50.6304366666667,-96.9807683333333,5.4,6.4,248,980.19,12.1,53,5.12,0.0,1006.52,41.3
2018-05-04 05:20,50.6304516666667,-96.9807783333333,5.6,7.3,250,980.22,11.8,54,5.11,0.0,1006.58,41.3
2018-05-04 05:30,50.630435,-96.9807516666667,6.1,7.6,253,980.28,11.6,54,5.10,0.0,1006.66,41.3
2018-05-04 05:40,50.6304366666667,-96.9807566666667,5.6,7.3,260,980.35,11.5,54,5.09,0.0,1006.75,41.3
2018-05-04 05:50,50.630435,-96.9807533333333,1.9,4.8,277,980.42,11.3,54,5.06,0.0,1006.85,41.3
2018-05-04 06:00,50.6304366666667,-96.9807583333333,4.4,7.3,6,980.45,10.6,58,5.04,0.0,1006.92,360.0
2018-05-04 06:10,50.6304366666667,-96.9807583333333,2.9,4.2,21,980.48,10.7,58,5.04,0.0,1006.97,360.0
2018-05-04 06:20,50.6304366666667,-96.9807566666667,3.2,5.0,336,980.61,10.1,59,5.02,0.0,1007.14,360.0
2018-05-04 06:30,50.630435,-96.9807583333333,1.7,4.1,340,980.66,10.1,60,5.00,0.0,1007.19,360.0
2018-05-04 06:40,50.630435,-96.98076,1.0,5.7,307,980.68,10.1,60,5.00,0.0,1007.23,360.0
2018-05-04 06:50,50.630435,-96.98076,1.3,3.9,347,980.77,8.4,68,5.01,0.0,1007.41,360.0
2018-05-04 07:00,50.6304483333333,-96.9807966666667,2.3,4.1,282,980.75,9.0,64,5.00,0.0,1007.37,316.2
2018-05-04 07:10,50.63043,-96.9807633333333,4.1,5.7,290,980.68,10.5,55,4.99,0.0,1007.24,316.2
2018-05-04 07:20,50.63043,-96.9807633333333,5.0,6.8,290,980.78,11.1,52,4.99,0.0,1007.33,316.2
2018-05-04 07:30,50.63043,-96.9807633333333,8.0,14.2,306,980.99,11.1,51,4.98,0.0,1007.55,316.2
2018-05-04 07:40,50.63043,-96.9807616666667,10.5,15.8,324,980.94,11.0,53,4.99,0.0,1007.51,316.2
2018-05-04 07:50,50.6304316666667,-96.9807633333333,8.4,10.7,337,980.94,10.3,57,4.98,0.0,1007.58,316.2
2018-05-04 08:00,50.6304333333333,-96.9807633333333,7.3,10.4,333,980.97,10.3,57,4.95,0.0,1007.60,142.0
2018-05-04 08:10,50.6304316666667,-96.9807633333333,6.1,8.5,323,981.09,10.3,57,4.90,0.0,1007.75,142.0
2018-05-04 08:20,50.630435,-96.98078,5.0,7.0,313,981.08,10.1,59,4.86,0.0,1007.75,142.0
2018-05-04 08:30,50.63043,-96.98077,4.0,6.2,305,981.07,9.9,60,4.83,0.0,1007.76,142.0
2018-05-04 08:40,50.6304316666667,-96.9807616666667,3.8,5.4,312,981.10,9.6,61,4.83,0.0,1007.88,142.0
2018-05-04 08:50,50.630455,-96.980755,3.3,4.5,295,981.13,9.3,62,4.87,0.0,1007.90,142.0
2018-05-04 09:00,50.6304433333333,-96.9807566666667,4.0,5.6,261,981.29,8.7,64,4.90,0.0,1008.01,38.0
2018-05-04 09:10,50.63044,-96.9807583333333,5.4,7.1,260,981.39,8.3,66,4.91,0.0,1008.11,38.0
2018-05-04 09:20,50.63044,-96.98076,6.5,9.0,259,981.48,8.1,66,4.92,0.0,1008.22,38.0
2018-05-04 09:30,50.63044,-96.98076,7.0,8.8,257,981.61,8.0,66,4.92,0.0,1008.35,38.0
2018-05-04 09:40,50.6304416666667,-96.9807583333333,6.7,8.0,258,981.69,7.7,67,4.93,0.0,1008.48,38.0
2018-05-04 09:50,50.6304416666667,-96.9807566666667,7.3,9.1,260,981.76,7.3,69,4.92,0.0,1008.58,38.0
2018-05-04 10:00,50.6304183333333,-96.980755,7.2,9.1,260,981.83,7.0,70,4.88,0.0,1008.67,143.4
2018-05-04 10:10,50.6304283333333,-96.9807616666667,6.5,8.4,254,981.87,6.6,72,4.79,0.0,1008.73,143.4
2018-05-04 10:20,50.6304366666667,-96.9807566666667,6.4,8.1,247,981.92,6.1,74,4.75,0.0,1008.82,143.4
2018-05-04 10:30,50.6304066666667,-96.980765,6.4,8.6,249,981.98,6.0,75,4.74,0.0,1008.90,143.4
2018-05-04 10:40,50.6304416666667,-96.9807416666667,7.0,9.3,251,982.06,6.2,74,4.73,0.0,1008.98,143.4
2018-05-04 10:50,50.6304433333333,-96.9807633333333,6.8,8.3,248,982.12,6.0,75,4.72,0.0,1009.08,143.4
2018-05-04 11:00,50.6304583333333,-96.980755,7.2,9.5,254,982.26,5.9,75,4.73,0.0,1009.26,13.3
2018-05-04 11:10,50.6304383333333,-96.9807483333333,7.0,10.9,255,982.50,5.8,75,4.71,0.0,1009.51,13.3
2018-05-04 11:20,50.6304416666667,-96.98075,6.0,9.1,268,982.66,5.9,74,4.69,0.0,1009.68,13.3
2018-05-04 11:30,50.6304416666667,-96.9807483333333,5.9,8.6,271,982.83,6.1,72,4.69,0.0,1009.86,13.3
2018-05-04 11:40,50.630445,-96.98075,6.9,10.2,275,982.96,6.4,70,4.69,0.0,1010.00,13.3
2018-05-04 11:50,50.630445,-96.9807516666667,6.6,9.4,275,983.10,6.6,68,4.69,0.0,1010.15,13.3
2018-05-04 12:00,50.630445,-96.9807533333333,6.3,9.1,275,983.28,6.9,66,4.71,0.0,1010.34,90.0
2018-05-04 12:10,50.6304433333333,-96.9807516666667,6.1,9.1,275,983.37,7.2,64,4.72,0.0,1010.44,90.0
2018-05-04 12:20,50.6304433333333,-96.9807533333333,6.5,10.0,278,983.43,7.6,61,4.72,0.0,1010.49,90.0
2018-05-04 12:30,50.6304383333333,-96.9807533333333,6.0,9.2,277,983.51,8.2,57,4.71,0.0,1010.53,90.0
2018-05-04 12:40,50.6304383333333,-96.9807583333333,6.1,8.6,280,983.58,8.8,55,4.70,0.0,1010.58,90.0
2018-05-04 12:50,50.6304333333333,-96.9807583333333,6.8,9.3,277,983.66,9.3,53,4.69,0.0,1010.65,90.0
2018-05-04 13:00,50.6304316666667,-96.9807566666667,7.1,10.6,277,983.71,9.6,51,4.70,0.0,1010.68,360.0
2018-05-04 13:10,50.6304333333333,-96.9807566666667,6.5,9.6,281,983.73,9.9,50,4.71,0.0,1010.69,360.0
2018-05-04 13:20,50.6304316666667,-96.980755,6.6,11.6,280,983.83,10.4,48,4.74,0.0,1010.76,360.0
2018-05-04 13:30,50.6304333333333,-96.9807583333333,5.8,8.5,277,983.90,10.7,47,4.76,0.0,1010.80,360.0
2018-05-04 13:40,50.6304333333333,-96.9807583333333,6.3,9.2,275,983.96,11.1,45,4.78,0.0,1010.83,360.0
2018-05-04 13:50,50.6304333333333,-96.9807583333333,5.7,9.9,281,984.03,11.6,44,4.80,0.0,1010.87,360.0
2018-05-04 14:00,50.6304333333333,-96.9807583333333,6.6,10.1,288,984.01,12.1,42,4.82,0.0,1010.81,170.2
2018-05-04 14:10,50.630445,-96.9807533333333,6.6,9.8,289,984.00,12.6,40,4.84,0.0,1010.75,170.2
2018-05-04 14:20,50.6304433333333,-96.9807566666667,7.8,11.6,284,983.96,12.8,40,4.87,0.0,1010.68,170.2
2018-05-04 14:30,50.6304416666667,-96.9807566666667,7.7,12.5,296,983.93,13.2,38,4.91,0.0,1010.60,170.2
2018-05-04 14:40,50.6304383333333,-96.9807566666667,10.6,17.7,309,983.82,13.7,36,4.96,0.0,1010.43,170.2
2018-05-04 14:50,50.6304383333333,-96.98076,11.6,17.8,297,983.84,14.0,34,5.00,0.0,1010.43,170.2
2018-05-04 15:00,50.630435,-96.9807583333333,13.6,20.2,308,983.76,14.2,33,5.03,0.0,1010.32,228.3
2018-05-04 15:10,50.630435,-96.9807566666667,12.3,18.8,305,983.86,14.5,31,5.03,0.0,1010.39,228.3
2018-05-04 15:20,50.6304333333333,-96.9807583333333,14.8,20.7,307,983.82,14.6,30,5.02,0.0,1010.32,228.3
2018-05-04 15:30,50.6304316666667,-96.9807583333333,12.8,20.2,303,983.95,14.8,29,5.02,0.0,1010.44,228.3
2018-05-04 15:40,50.6304316666667,-96.9807516666667,11.6,18.4,304,984.02,15.0,29,5.03,0.0,1010.47,228.3
2018-05-04 15:50,50.6304266666667,-96.9807516666667,12.3,19.8,303,984.02,15.3,28,5.04,0.0,1010.43,228.3
2018-05-04 16:00,50.63043,-96.9807566666667,12.7,21.7,291,984.05,15.6,27,5.02,0.0,1010.43,360.0
2018-05-04 16:10,50.6304283333333,-96.980755,14.6,21.4,291,983.98,15.6,26,5.04,0.0,1010.35,360.0
2018-05-04 16:20,50.6304283333333,-96.9807533333333,12.4,20.5,306,984.01,15.8,27,5.10,0.0,1010.35,360.0
2018-05-04 16:30,50.6304283333333,-96.9807533333333,11.4,19.4,294,984.15,16.0,26,5.15,0.0,1010.47,360.0
2018-05-04 16:40,50.6304283333333,-96.980755,10.3,17.1,297,984.20,16.1,25,5.17,0.0,1010.49,360.0
2018-05-04 16:50,50.6304283333333,-96.980755,13.5,22.9,291,984.18,16.2,24,5.20,0.0,1010.46,360.0
2018-05-04 17:00,50.63042,-96.9807616666667,12.7,19.3,288,984.26,16.3,23,5.22,0.0,1010.52,360.0
2018-05-04 17:10,50.6304333333333,-96.9807566666667,12.9,20.2,293,984.24,16.4,22,5.24,0.0,1010.49,360.0
2018-05-04 17:20,50.6304266666667,-96.9807666666667,11.9,22.2,301,984.33,16.6,22,5.27,0.0,1010.57,360.0
2018-05-04 17:30,50.6304266666667,-96.9807633333333,13.7,22.4,288,984.29,16.6,21,5.30,0.0,1010.51,360.0
2018-05-04 17:40,50.63041,-96.9807566666667,14.4,22.6,309,984.22,16.7,21,5.33,0.0,1010.43,360.0
2018-05-04 17:50,50.63043,-96.980755,12.0,19.3,318,984.39,16.6,22,5.37,0.0,1010.59,360.0
2018-05-04 18:00,50.6304316666667,-96.9807516666667,15.7,22.8,313,984.25,16.7,21,5.40,0.0,1010.44,131.7
2018-05-04 18:10,50.63043,-96.9807516666667,13.2,23.7,306,984.45,16.9,21,5.43,0.0,1010.63,131.7
2018-05-04 18:20,50.63043,-96.9807533333333,13.9,21.1,309,984.52,16.9,21,5.44,0.0,1010.70,131.7
2018-05-04 18:30,50.63043,-96.9807516666667,14.2,22.8,325,984.52,16.8,21,5.45,0.0,1010.69,131.7
2018-05-04 18:40,50.63043,-96.9807533333333,14.0,25.3,317,984.53,17.1,20,5.44,0.0,1010.69,131.7
2018-05-04 18:50,50.6304283333333,-96.9807516666667,13.5,20.3,314,984.64,17.0,20,5.43,0.0,1010.80,131.7
2018-05-04 19:00,50.6304283333333,-96.9807516666667,13.3,21.2,300,984.64,17.0,19,5.42,0.0,1010.79,90.0
2018-05-04 19:10,50.6304283333333,-96.9807533333333,9.4,17.5,327,984.82,17.2,22,5.43,0.0,1010.96,90.0
2018-05-04 19:20,50.6304416666667,-96.9807816666667,10.3,14.4,65,985.10,9.8,51,5.47,0.0,1011.58,90.0
2018-05-04 19:30,50.630435,-96.9807766666667,11.1,17.0,55,985.09,7.9,51,5.51,0.0,1011.67,90.0
2018-05-04 19:40,50.6304316666667,-96.980775,8.2,14.4,48,985.30,8.0,52,5.51,0.0,1011.88,90.0
2018-05-04 19:50,50.63043,-96.9807683333333,9.7,13.2,71,985.37,7.3,57,5.54,0.0,1011.98,90.0
2018-05-04 20:00,50.6304283333333,-96.98075,11.8,13.6,73,985.45,6.9,61,5.57,0.0,1012.07,48.3
2018-05-04 20:10,50.6304266666667,-96.9807516666667,8.8,12.3,85,985.52,7.8,56,5.57,0.0,1012.10,48.3
2018-05-04 20:20,50.630405,-96.9807283333333,3.1,8.4,114,985.59,7.9,59,5.58,0.0,1012.17,48.3
2018-05-04 20:30,50.6304433333333,-96.9807633333333,3.7,7.8,122,985.60,7.3,59,5.55,0.0,1012.20,48.3
2018-05-04 20:40,50.6304366666667,-96.9807566666667,2.7,6.9,98,985.68,8.3,55,5.53,0.0,1012.24,48.3
2018-05-04 20:50,50.6304366666667,-96.9807583333333,5.4,7.0,75,985.65,8.4,56,5.51,0.0,1012.20,48.3
2018-05-04 21:00,50.6304383333333,-96.98076,6.4,8.7,63,985.60,7.0,62,5.45,0.0,1012.20,345.5
2018-05-04 21:10,50.6304366666667,-96.9807583333333,6.7,9.3,57,985.68,5.5,69,5.41,0.0,1012.72,345.5
2018-05-04 21:20,50.6304383333333,-96.9807583333333,3.4,7.4,47,985.85,5.1,71,5.37,0.0,1013.00,345.5
2018-05-04 21:30,50.6304483333333,-96.9807516666667,1.6,5.4,84,986.05,6.7,62,5.34,0.0,1013.12,345.5
2018-05-04 21:40,50.6304483333333,-96.980755,2.5,5.0,83,986.06,9.0,54,5.33,0.0,1013.06,345.5
2018-05-04 21:50,50.6304466666667,-96.9807566666667,2.2,5.9,87,986.09,9.7,52,5.32,0.0,1013.07,345.5
2018-05-04 22:00,50.6304366666667,-96.98078,2.3,6.3,92,986.09,9.7,52,5.31,0.0,1013.03,296.7
2018-05-04 22:10,50.6304433333333,-96.9807783333333,2.0,4.9,86,986.14,9.7,52,5.31,0.0,1013.08,296.7
2018-05-04 22:20,50.6304,-96.9807816666667,1.6,3.7,155,986.35,9.5,52,5.31,0.0,1013.33,296.7
2018-05-04 22:30,50.6304216666667,-96.980775,3.7,5.5,92,986.32,9.5,50,5.32,0.0,1013.25,296.7
2018-05-04 22:40,50.6304483333333,-96.9807733333333,3.0,4.7,85,986.39,10.5,47,5.39,0.0,1013.27,296.7
2018-05-04 22:50,50.6304366666667,-96.9807483333333,3.6,6.8,72,986.46,10.5,46,5.47,0.0,1013.41,296.7
2018-05-04 23:00,50.630435,-96.980765,6.2,8.9,57,986.40,8.9,52,5.48,0.0,1013.51,323.4
2018-05-04 23:10,50.6304216666667,-96.9807766666667,8.1,8.9,67,986.26,7.9,54,5.49,0.0,1013.42,323.4
2018-05-04 23:20,50.6304266666667,-96.9807683333333,7.7,8.6,68,986.09,7.4,58,5.49,0.0,1013.20,323.4
2018-05-04 23:30,50.6304266666667,-96.9807616666667,7.0,8.6,60,986.03,6.1,63,5.48,0.0,1013.08,323.4
2018-05-04 23:40,50.6304283333333,-96.98076,6.3,7.5,63,986.09,6.4,61,5.51,0.0,1013.10,323.4
2018-05-04 23:50,50.63043,-96.9807616666667,8.4,9.7,75,986.04,6.1,61,5.52,0.0,1013.06,323.4
